Wind_Speed
40 43 43 45 43 45 42 47 56 62 64 59 58 59 60 62 64 61 61 60 59 58 57 59 56 53 52 51 50 49 46 46 47 44 44 44 44 43 43 41 37 34 30
28 29 33 38 43 44 46 48 52 53 51 50 51 46 44 46 47 49 50 44 51 58 59 56 53 53 52 50 49 48 45 45 46 46 45 46 45 45 42 38 35 31 28
29 29 30 31 32 34 38 40 43 44 43 45 46 43 43 45 48 49 48 48 49 48 45 44 44 43 45 45 45 44 45 46 47 48 47 45 45 42 39 34 32 31 29
33 34 34 36 36 37 39 40 41 42 42 41 43 44 46 46 48 49 48 47 47 47 46 45 45 43 44 43 44 47 48 51 51 48 46 43 39 37 33 32 30 30 29
34 35 37 38 40 41 42 44 45 47 47 47 48 47 48 48 48 49 47 47 46 47 46 45 45 45 46 47 47 48 49 48 46 42 39 37 32 32 31 30 31 28 27
34 34 35 35 36 37 37 39 42 45 46 48 49 49 49 48 48 48 47 48 48 48 49 50 51 51 50 43 37 43 43 40 35 32 36 36 30 30 29 30 29 27 25
33 35 36 35 33 35 37 37 39 43 45 47 47 49 49 49 48 48 48 47 47 49 51 50 48 49 44 44 42 41 35 35 36 33 31 29 30 27 29 31 27 26 25
36 37 37 38 38 38 40 40 38 36 36 38 42 44 46 46 46 47 47 46 47 48 46 46 46 44 43 44 49 43 42 35 31 30 31 25 28 29 31 29 28 26 26
42 42 42 41 41 40 42 42 41 39 38 39 40 41 42 43 45 46 47 48 48 45 43 41 43 41 39 42 42 43 42 41 32 25 24 28 26 30 30 28 28 28 28
43 44 44 43 44 43 44 44 41 40 40 41 40 38 39 40 41 42 41 40 39 40 42 40 41 39 38 38 38 36 38 35 28 25 30 27 28 30 30 30 29 28 28
41 41 41 41 42 42 41 41 40 39 41 42 39 37 39 37 36 37 35 34 35 36 38 36 36 33 37 34 33 35 31 25 24 29 28 27 30 31 31 31 32 34 30
37 37 37 38 39 39 39 39 39 40 41 41 39 38 38 36 34 33 32 34 33 33 31 30 29 31 24 29 28 26 24 24 27 27 28 30 31 33 33 34 37 38 35
35 35 35 36 38 37 36 36 36 38 38 36 38 38 38 34 32 29 32 30 27 27 30 32 30 25 22 19 21 23 25 27 28 28 30 31 33 33 35 38 41 40 37
36 35 35 35 35 35 34 33 34 35 34 34 33 35 35 30 28 28 26 25 24 26 24 25 23 21 23 26 27 26 27 29 30 30 30 31 32 35 37 36 35 36 36
36 36 35 35 34 34 35 35 36 36 34 35 36 35 35 29 29 28 27 23 21 21 21 22 24 25 25 26 25 26 27 27 27 28 28 29 31 33 33 35 36 36 35
38 38 36 36 36 34 33 29 29 28 34 37 37 38 35 28 25 26 24 23 21 20 20 20 20 21 22 22 23 23 24 25 27 29 31 35 35 34 35 36 36 35 37
38 39 38 37 37 35 33 32 30 29 27 27 29 30 29 25 25 27 26 24 21 20 21 21 22 23 24 25 27 28 29 29 31 36 38 34 35 38 37 38 40 41 43
37 36 36 38 38 37 35 32 30 30 27 22 24 29 31 26 28 26 26 24 24 24 24 24 24 25 27 28 29 31 32 34 37 38 39 39 40 41 41 43 46 47 47
41 40 39 37 37 38 38 36 36 33 29 26 19 18 26 28 28 28 26 25 26 25 25 27 29 30 31 32 34 35 37 38 39 41 43 44 45 48 50 52 53 53 51
39 40 40 39 39 39 39 38 37 36 32 30 26 24 22 21 26 30 30 29 29 28 29 31 32 33 34 35 35 36 38 39 40 42 40 39 41 43 47 50 53 55 56
47 44 42 44 42 39 38 38 38 38 37 35 33 30 28 27 24 26 30 29 28 30 31 32 33 34 34 34 35 35 35 35 37 39 39 41 43 47 49 48 49 48 48
36 42 48 48 46 45 42 37 39 39 37 36 36 35 32 30 31 31 32 32 34 34 34 34 34 33 34 31 31 32 36 39 41 43 44 47 49 49 47 46 44 44 45
40 38 42 46 48 46 44 41 38 40 40 37 35 34 33 31 32 34 35 35 35 33 34 33 32 30 29 30 34 37 40 41 43 45 47 50 49 46 42 41 43 43 43
42 41 40 43 45 47 46 44 40 39 41 41 39 37 35 33 31 31 32 31 30 33 32 28 27 27 30 32 33 36 39 41 43 44 43 43 42 42 42 43 43 41 39
44 40 37 41 45 45 46 46 42 41 40 40 39 39 38 36 33 32 32 32 31 28 25 25 26 27 28 30 34 37 39 40 41 39 36 36 36 36 36 37 38 37 38
44 40 39 42 43 44 44 44 42 41 40 38 36 37 36 34 33 33 31 28 24 23 24 24 24 26 29 32 36 39 40 39 39 38 36 36 35 35 36 37 39 41 43
Wind_Direction
252 255 258 257 255 257 259 258 258 260 263 265 266 269 271 271 272 272 271 270 271 273 276 276 275 276 276 276 278 279 278 278 278 278 279 281 284 285 285 284 281 280 282
256 257 260 265 265 261 259 258 259 257 261 266 260 264 270 272 269 269 272 276 278 274 270 270 272 274 275 276 279 280 278 275 275 276 277 279 283 283 281 278 278 279 276
260 262 264 265 269 270 267 268 267 268 268 272 276 273 273 274 277 276 276 279 277 276 280 281 278 278 278 278 274 278 277 274 273 273 275 278 280 278 275 274 275 275 275
260 262 263 264 266 268 268 269 272 273 272 271 271 271 270 271 272 275 278 280 280 280 280 281 282 280 280 277 277 274 272 271 270 272 275 277 277 272 271 275 274 274 275
264 264 263 263 264 265 267 268 269 269 270 270 270 270 270 271 273 274 276 277 278 278 278 274 271 271 271 271 271 272 272 272 273 273 273 270 265 268 272 270 272 271 271
262 264 264 266 266 264 265 267 269 269 271 272 272 271 272 273 274 275 276 276 276 277 275 272 274 275 272 272 273 276 275 273 270 266 268 265 260 264 264 269 269 271 273
263 262 260 266 269 268 268 274 277 272 270 271 272 272 273 273 274 273 274 277 280 279 278 277 277 276 273 263 268 271 270 267 265 261 258 257 261 263 265 267 267 271 272
264 265 264 263 264 268 269 273 276 276 275 274 273 272 273 273 274 275 275 276 275 281 281 276 274 274 269 261 262 269 271 265 256 250 255 259 260 265 266 267 269 271 273
263 264 262 263 264 264 267 270 274 276 276 276 275 275 276 277 276 276 277 277 277 279 279 273 275 274 271 258 257 259 274 266 255 251 251 258 264 266 265 267 271 274 276
262 261 263 265 265 264 266 269 271 271 272 273 276 279 279 279 277 276 276 279 281 276 273 274 281 264 272 266 258 258 262 254 247 252 251 263 266 268 268 269 271 272 271
262 263 263 263 263 264 265 266 267 268 269 271 273 277 277 278 277 275 276 277 278 277 274 271 278 272 274 264 252 256 255 244 245 249 260 265 268 267 269 272 269 270 271
261 262 261 261 261 262 263 264 265 266 267 270 272 274 275 275 272 269 269 281 279 278 273 271 263 267 259 253 253 250 250 251 254 257 262 266 269 268 271 274 270 273 276
260 258 257 262 262 261 262 265 267 267 268 267 268 269 271 272 267 264 276 280 279 272 271 267 261 254 255 261 266 264 262 261 262 266 269 272 271 272 275 276 276 280 281
259 258 261 263 262 263 263 265 268 266 267 266 269 267 271 260 262 266 269 276 280 279 272 263 267 273 277 272 267 263 266 269 271 271 273 274 276 279 281 281 281 280 282
261 258 258 257 263 263 260 264 266 266 265 269 264 265 267 261 260 265 264 264 273 278 274 268 266 276 280 272 272 276 278 277 276 277 279 281 281 279 278 280 280 280 280
258 258 256 257 258 262 262 262 270 270 263 267 268 264 263 256 258 260 262 264 267 270 269 267 270 271 266 269 270 270 270 269 271 268 274 281 279 280 281 280 279 280 283
255 255 257 257 256 259 258 259 263 265 262 272 265 250 243 252 260 259 256 254 258 264 262 261 259 261 265 268 270 271 273 276 277 276 282 275 277 282 281 279 278 280 283
253 256 257 255 256 257 257 256 258 261 259 256 259 255 244 251 254 256 255 253 253 254 258 264 269 270 271 272 274 275 274 275 280 281 280 277 275 278 279 277 277 280 282
254 252 252 254 257 255 256 255 256 254 259 265 258 263 255 255 256 253 256 257 260 258 260 264 267 271 273 275 277 280 281 283 284 283 283 283 282 280 279 279 280 281 279
252 252 251 251 251 254 255 254 255 257 257 259 262 260 263 263 255 253 259 266 263 264 265 269 274 278 280 281 282 283 284 286 286 286 289 290 290 290 287 284 282 280 278
255 254 250 249 251 252 253 255 253 255 256 257 259 259 258 260 266 257 254 248 262 268 273 277 279 280 281 283 284 284 286 287 290 292 290 291 292 290 290 291 289 286 282
257 255 253 252 252 251 255 257 253 252 254 256 257 258 259 258 257 258 256 261 269 272 275 277 279 279 280 281 284 288 289 290 290 289 288 289 292 293 291 289 288 287 284
255 258 255 253 251 251 253 253 254 250 249 252 255 256 258 259 257 258 260 263 267 269 272 272 275 277 283 289 292 293 294 295 295 294 290 288 289 289 287 285 286 287 286
255 254 259 252 251 248 247 250 250 249 247 248 251 254 255 257 260 260 261 263 266 269 270 272 276 284 289 291 294 297 298 297 296 296 295 292 289 287 285 284 285 284 283
252 253 259 259 248 248 245 244 248 248 245 246 249 254 255 254 254 259 263 265 265 264 267 275 281 284 289 294 298 302 304 301 300 301 302 299 295 292 289 286 286 289 290
246 251 257 256 247 245 240 243 246 244 242 242 247 252 253 252 252 254 259 257 254 261 269 272 280 287 295 300 306 307 304 301 298 297 297 297 297 296 296 295 294 293 291
Height
5722 5722 5723 5724 5724 5725 5726 5727 5728 5727 5727 5727 5726 5725 5725 5726 5726 5726 5726 5725 5725 5724 5724 5723 5722 5722 5720 5719 5718 5717 5714 5713 5712 5711 5710 5707 5704 5703 5701 5698 5696 5694 5691
5713 5713 5713 5713 5714 5715 5715 5716 5715 5715 5714 5715 5714 5713 5714 5714 5714 5713 5712 5711 5711 5711 5710 5709 5709 5709 5707 5707 5706 5705 5703 5700 5700 5698 5698 5696 5694 5691 5689 5688 5687 5686 5684
5704 5704 5704 5705 5705 5705 5704 5704 5704 5704 5702 5702 5702 5701 5702 5702 5703 5702 5701 5700 5699 5698 5698 5697 5696 5696 5695 5693 5692 5691 5690 5688 5687 5686 5684 5683 5682 5681 5680 5678 5677 5677 5675
5694 5695 5695 5695 5695 5695 5694 5693 5693 5693 5692 5691 5691 5691 5691 5690 5690 5690 5689 5688 5686 5686 5685 5684 5683 5683 5682 5681 5680 5678 5677 5676 5674 5673 5672 5671 5672 5672 5671 5670 5669 5668 5668
5683 5683 5683 5684 5684 5684 5684 5683 5683 5683 5682 5681 5680 5679 5679 5678 5677 5678 5677 5676 5675 5673 5673 5672 5671 5670 5669 5668 5666 5664 5663 5662 5662 5661 5660 5661 5661 5662 5663 5662 5661 5660 5659
5673 5673 5673 5673 5673 5673 5672 5672 5672 5671 5670 5669 5668 5668 5667 5666 5666 5665 5664 5664 5662 5661 5661 5659 5659 5658 5657 5657 5655 5653 5652 5651 5650 5650 5651 5651 5651 5652 5652 5653 5653 5652 5651
5662 5663 5663 5663 5662 5662 5662 5661 5660 5658 5657 5656 5656 5655 5655 5655 5654 5653 5652 5652 5650 5649 5648 5646 5645 5644 5644 5644 5643 5643 5641 5641 5641 5641 5641 5643 5643 5643 5644 5644 5643 5643 5642
5651 5651 5651 5651 5650 5651 5651 5650 5649 5647 5646 5645 5644 5644 5643 5643 5643 5642 5640 5639 5638 5637 5634 5633 5632 5631 5630 5630 5631 5632 5632 5631 5631 5631 5632 5633 5634 5635 5635 5635 5634 5634 5634
5639 5639 5640 5640 5639 5639 5638 5638 5638 5637 5635 5634 5634 5634 5633 5632 5630 5629 5628 5626 5625 5623 5622 5621 5620 5619 5617 5617 5619 5619 5620 5621 5619 5621 5623 5624 5626 5627 5627 5626 5626 5625 5625
5626 5626 5627 5627 5628 5626 5626 5626 5626 5625 5625 5624 5624 5623 5621 5619 5618 5617 5615 5614 5613 5611 5610 5610 5609 5608 5608 5608 5607 5608 5610 5609 5611 5614 5615 5616 5618 5618 5618 5618 5617 5616 5616
5613 5613 5614 5614 5614 5613 5614 5614 5614 5614 5614 5613 5613 5612 5611 5609 5607 5606 5605 5604 5602 5601 5599 5599 5599 5599 5598 5598 5598 5600 5600 5602 5604 5606 5607 5608 5609 5609 5609 5608 5608 5608 5606
5600 5600 5601 5601 5601 5601 5601 5602 5602 5602 5603 5602 5602 5602 5600 5599 5597 5596 5595 5594 5592 5590 5590 5590 5590 5591 5590 5591 5592 5592 5593 5595 5597 5598 5599 5599 5600 5600 5600 5599 5599 5598 5596
5589 5589 5589 5590 5590 5590 5590 5591 5591 5591 5591 5591 5591 5591 5590 5588 5587 5587 5587 5585 5584 5583 5582 5583 5583 5583 5583 5584 5585 5586 5587 5588 5589 5590 5590 5590 5590 5590 5590 5589 5588 5587 5586
5577 5578 5578 5579 5579 5579 5580 5580 5581 5580 5580 5581 5581 5580 5580 5579 5578 5578 5578 5577 5577 5575 5575 5575 5576 5577 5578 5579 5580 5580 5581 5581 5581 5581 5581 5581 5581 5581 5580 5579 5577 5576 5575
5565 5566 5567 5568 5569 5569 5569 5570 5570 5570 5570 5570 5570 5570 5570 5569 5570 5570 5569 5569 5569 5569 5569 5570 5570 5571 5572 5572 5573 5573 5573 5574 5573 5573 5573 5572 5571 5570 5569 5567 5567 5565 5563
5553 5554 5555 5557 5558 5559 5559 5560 5559 5558 5558 5559 5559 5559 5560 5560 5561 5561 5562 5562 5562 5562 5562 5563 5564 5564 5565 5565 5565 5565 5565 5565 5564 5563 5563 5562 5561 5560 5558 5557 5555 5553 5551
5539 5542 5543 5545 5547 5548 5549 5549 5550 5550 5549 5548 5547 5548 5550 5552 5553 5553 5554 5554 5555 5556 5556 5556 5557 5558 5558 5558 5558 5557 5556 5556 5555 5555 5553 5551 5550 5549 5547 5545 5544 5541 5539
5526 5528 5531 5533 5535 5537 5538 5539 5540 5541 5540 5541 5539 5539 5541 5543 5544 5545 5546 5547 5547 5548 5548 5549 5549 5550 5550 5550 5549 5549 5547 5546 5545 5544 5542 5540 5538 5536 5535 5533 5530 5528 5525
5513 5516 5518 5520 5523 5525 5527 5529 5530 5531 5532 5532 5531 5532 5533 5534 5536 5537 5538 5539 5539 5541 5541 5541 5541 5541 5541 5541 5540 5539 5537 5536 5534 5531 5529 5527 5525 5523 5520 5518 5515 5512 5510
5499 5501 5504 5507 5509 5512 5515 5518 5520 5521 5522 5523 5524 5525 5525 5526 5527 5528 5530 5531 5532 5532 5533 5533 5533 5532 5531 5530 5529 5527 5525 5523 5521 5518 5516 5514 5511 5509 5505 5501 5498 5495 5493
5483 5487 5490 5494 5498 5500 5503 5506 5508 5510 5512 5513 5514 5515 5517 5518 5519 5519 5521 5522 5523 5523 5524 5524 5523 5522 5521 5520 5518 5516 5514 5512 5509 5507 5504 5501 5498 5494 5490 5486 5482 5478 5475
5468 5471 5475 5479 5483 5487 5490 5493 5496 5499 5501 5503 5504 5505 5507 5509 5510 5511 5512 5513 5514 5514 5514 5514 5513 5512 5511 5510 5508 5506 5504 5501 5497 5494 5491 5487 5483 5479 5475 5472 5468 5464 5461
5453 5456 5459 5462 5467 5472 5476 5481 5484 5487 5490 5492 5494 5496 5498 5499 5500 5502 5503 5503 5504 5504 5504 5504 5503 5502 5501 5500 5498 5495 5492 5488 5484 5480 5476 5472 5468 5464 5460 5458 5455 5451 5448
5437 5441 5445 5448 5452 5457 5463 5467 5471 5475 5478 5481 5484 5486 5488 5489 5490 5492 5493 5493 5494 5495 5495 5495 5494 5493 5492 5490 5487 5484 5480 5476 5471 5466 5461 5457 5453 5450 5447 5444 5441 5437 5435
5422 5426 5430 5434 5438 5442 5448 5453 5457 5462 5466 5470 5473 5475 5477 5479 5481 5483 5484 5484 5485 5485 5486 5486 5485 5485 5483 5481 5477 5473 5468 5463 5458 5454 5449 5445 5441 5438 5435 5432 5429 5426 5422
5406 5412 5416 5419 5424 5428 5433 5439 5444 5449 5454 5458 5462 5465 5467 5469 5471 5473 5474 5475 5476 5477 5477 5477 5477 5476 5473 5470 5466 5461 5456 5452 5448 5444 5439 5435 5432 5428 5424 5421 5418 5414 5410